,,,PA_Meas_PMT16A,,PR_Meas_QMR101_102,,RH_Meas_QMH101,,SR_Meas_QMS101,,TA_Meas_QMH101,,GenWind,,GenWind,
date,time,status,PA,status,PR,status,RH,status,SR,status,TA,status,DirAvg,status,SpdAvg,
2009-07-13, 00:00:04,VALID,1009.79,VALID,0,VALID,86.7048,VALID,0,VALID,20.8698,VALID,236,VALID,0,
2009-07-13, 00:01:04,VALID,1009.75,VALID,0,VALID,86.6896,VALID,0,VALID,20.8698,VALID,236,VALID,0,
2009-07-13, 00:02:04,VALID,1009.71,VALID,0,VALID,86.6819,VALID,0,VALID,20.8698,VALID,236,VALID,0,
2009-07-13, 00:03:04,VALID,1009.7,VALID,0,VALID,86.6667,VALID,0,VALID,20.8698,VALID,236,VALID,0,
2009-07-13, 00:04:04,VALID,1009.68,VALID,0,VALID,86.6743,VALID,0,VALID,20.8503,VALID,236,VALID,0,
2009-07-13, 00:05:04,VALID,1009.64,VALID,0,VALID,86.6667,VALID,0,VALID,20.8503,VALID,236,VALID,0,
2009-07-13, 00:06:04,VALID,1009.64,VALID,0,VALID,86.6667,VALID,0,VALID,20.8309,VALID,236,VALID,0,
2009-07-13, 00:07:04,VALID,1009.59,VALID,0,VALID,86.6819,VALID,0,VALID,20.8309,VALID,236,VALID,0,
2009-07-13, 00:08:04,VALID,1009.6,VALID,0,VALID,86.7506,VALID,0,VALID,20.8503,VALID,236,VALID,0,
2009-07-13, 00:09:04,VALID,1009.56,VALID,0,VALID,86.7201,VALID,0,VALID,20.8309,VALID,236,VALID,0,
2009-07-13, 00:10:04,VALID,1009.54,VALID,0,VALID,86.7201,VALID,0,VALID,20.8293,VALID,236,VALID,0,
2009-07-13, 00:11:04,VALID,1009.51,VALID,0,VALID,86.7201,VALID,0,VALID,20.8309,VALID,236,VALID,0,
2009-07-13, 00:12:04,VALID,1009.5,VALID,0,VALID,86.7124,VALID,0,VALID,20.8503,VALID,236,VALID,0,
2009-07-13, 00:13:04,VALID,1009.46,VALID,0,VALID,86.7124,VALID,0,VALID,20.8309,VALID,236,VALID,0,
2009-07-13, 00:14:04,VALID,1009.44,VALID,0,VALID,86.6972,VALID,0,VALID,20.8309,VALID,236,VALID,0,
2009-07-13, 00:15:04,VALID,1009.45,VALID,0,VALID,86.6819,VALID,0,VALID,20.8114,VALID,236,VALID,0,
2009-07-13, 00:16:04,VALID,1009.46,VALID,0,VALID,86.6743,VALID,0,VALID,20.8114,VALID,236,VALID,0,
2009-07-13, 00:17:04,VALID,1009.42,VALID,0,VALID,86.6743,VALID,0,VALID,20.8114,VALID,236,VALID,0,
2009-07-13, 00:18:04,VALID,1009.41,VALID,0,VALID,86.6438,VALID,0,VALID,20.7725,VALID,236,VALID,0,
2009-07-13, 00:19:04,VALID,1009.41,VALID,0,VALID,86.6438,VALID,0,VALID,20.7725,VALID,236,VALID,0,
2009-07-13, 00:20:04,VALID,1009.37,VALID,0,VALID,86.6514,VALID,0,VALID,20.7335,VALID,236,VALID,0,
2009-07-13, 00:21:04,VALID,1009.38,VALID,0,VALID,86.6362,VALID,0.105969,VALID,20.7335,VALID,236,VALID,0,
2009-07-13, 00:22:04,VALID,1009.34,VALID,0,VALID,86.6591,VALID,0,VALID,20.7335,VALID,236,VALID,0,
2009-07-13, 00:23:04,VALID,1009.28,VALID,0,VALID,86.6591,VALID,0,VALID,20.7141,VALID,236,VALID,0,
2009-07-13, 00:24:04,VALID,1009.29,VALID,0,VALID,86.6514,VALID,0,VALID,20.7141,VALID,236,VALID,0,
2009-07-13, 00:25:04,VALID,1009.28,VALID,0,VALID,86.6819,VALID,0.105969,VALID,20.6946,VALID,236,VALID,0,
2009-07-13, 00:26:04,VALID,1009.28,VALID,0,VALID,86.6896,VALID,0,VALID,20.6946,VALID,236,VALID,0,
2009-07-13, 00:27:04,VALID,1009.26,VALID,0,VALID,86.6972,VALID,0,VALID,20.6751,VALID,236,VALID,0,
2009-07-13, 00:28:04,VALID,1009.24,VALID,0,VALID,86.7124,VALID,0,VALID,20.6736,VALID,236,VALID,0,
2009-07-13, 00:29:04,VALID,1009.23,VALID,0,VALID,86.7201,VALID,0,VALID,20.6946,VALID,236,VALID,0,
2009-07-13, 00:30:04,VALID,1009.21,VALID,0,VALID,86.7124,VALID,0,VALID,20.6946,VALID,236,VALID,0,
2009-07-13, 00:31:04,VALID,1009.18,VALID,0,VALID,86.7201,VALID,0,VALID,20.6946,VALID,236,VALID,0,
2009-07-13, 00:32:04,VALID,1009.17,VALID,0,VALID,86.7277,VALID,0,VALID,20.6751,VALID,236,VALID,0,
2009-07-13, 00:33:04,VALID,1009.15,VALID,0,VALID,86.7201,VALID,0,VALID,20.6751,VALID,236,VALID,0,
2009-07-13, 00:34:04,VALID,1009.14,VALID,0,VALID,86.7048,VALID,0,VALID,20.6557,VALID,236,VALID,0,
2009-07-13, 00:35:04,VALID,1009.14,VALID,0,VALID,86.7048,VALID,0,VALID,20.6346,VALID,236,VALID,0,
2009-07-13, 00:36:04,VALID,1009.14,VALID,0,VALID,86.6972,VALID,0,VALID,20.6362,VALID,236,VALID,0,
2009-07-13, 00:37:04,VALID,1009.16,VALID,0,VALID,86.6972,VALID,0,VALID,20.6362,VALID,236,VALID,0,
2009-07-13, 00:38:04,VALID,1009.17,VALID,0,VALID,86.6972,VALID,0,VALID,20.6167,VALID,236,VALID,0,
2009-07-13, 00:39:04,VALID,1009.18,VALID,0,VALID,86.6819,VALID,0,VALID,20.6167,VALID,236,VALID,0,
2009-07-13, 00:40:04,VALID,1009.16,VALID,0,VALID,86.7124,VALID,0,VALID,20.6167,VALID,236,VALID,0,
2009-07-13, 00:41:04,VALID,1009.13,VALID,0,VALID,86.7124,VALID,0,VALID,20.6362,VALID,236,VALID,0,
2009-07-13, 00:42:04,VALID,1009.09,VALID,0,VALID,86.7124,VALID,0,VALID,20.6362,VALID,236,VALID,0,
2009-07-13, 00:43:04,VALID,1009.06,VALID,0,VALID,86.7277,VALID,0,VALID,20.6167,VALID,236,VALID,0,
2009-07-13, 00:44:04,VALID,1009.06,VALID,0,VALID,86.7124,VALID,0,VALID,20.6167,VALID,236,VALID,0,
2009-07-13, 00:45:04,VALID,1009.03,VALID,0,VALID,86.7201,VALID,0,VALID,20.5973,VALID,236,VALID,0,
2009-07-13, 00:46:04,VALID,1009.07,VALID,0,VALID,86.7277,VALID,0,VALID,20.5778,VALID,236,VALID,0,
2009-07-13, 00:47:04,VALID,1009.05,VALID,0,VALID,86.7277,VALID,0,VALID,20.5778,VALID,236,VALID,0,
2009-07-13, 00:48:04,VALID,1009.04,VALID,0,VALID,86.7277,VALID,0,VALID,20.5583,VALID,236,VALID,0,
2009-07-13, 00:49:04,VALID,1009.04,VALID,0,VALID,86.7277,VALID,0,VALID,20.5178,VALID,236,VALID,0,
2009-07-13, 00:50:04,VALID,1009.03,VALID,0,VALID,86.7506,VALID,0,VALID,20.5194,VALID,236,VALID,0,
2009-07-13, 00:51:04,VALID,1009.02,VALID,0,VALID,86.7277,VALID,0,VALID,20.4999,VALID,236,VALID,0,
2009-07-13, 00:52:04,VALID,1009,VALID,0,VALID,86.7429,VALID,0,VALID,20.4594,VALID,236,VALID,0,
2009-07-13, 00:53:04,VALID,1008.97,VALID,0,VALID,86.7429,VALID,0,VALID,20.461,VALID,236,VALID,0,
2009-07-13, 00:54:04,VALID,1008.95,VALID,0,VALID,86.7506,VALID,0,VALID,20.4415,VALID,236,VALID,0,
2009-07-13, 00:55:04,VALID,1008.94,VALID,0,VALID,86.7506,VALID,0,VALID,20.401,VALID,236,VALID,0,
2009-07-13, 00:56:04,VALID,1008.9,VALID,0,VALID,86.7658,VALID,0,VALID,20.4415,VALID,236,VALID,0,
2009-07-13, 00:57:04,VALID,1008.91,VALID,0,VALID,86.7811,VALID,0,VALID,20.4415,VALID,236,VALID,0,
2009-07-13, 00:58:04,VALID,1008.89,VALID,0,VALID,86.7963,VALID,0,VALID,20.4221,VALID,236,VALID,0,
2009-07-13, 00:59:04,VALID,1008.86,VALID,0,VALID,86.7734,VALID,0,VALID,20.4026,VALID,236,VALID,0,
2009-07-13, 01:00:04,VALID,1008.88,VALID,0,VALID,86.7811,VALID,0,VALID,20.3816,VALID,236,VALID,0,
2009-07-13, 01:01:04,VALID,1008.89,VALID,0,VALID,86.7811,VALID,0,VALID,20.4041,VALID,236,VALID,0,
2009-07-13, 01:02:04,VALID,1008.88,VALID,0,VALID,86.7963,VALID,0,VALID,20.3637,VALID,236,VALID,0,
2009-07-13, 01:03:04,VALID,1008.9,VALID,0,VALID,86.7811,VALID,0,VALID,20.3637,VALID,236,VALID,0,
2009-07-13, 01:04:04,VALID,1008.87,VALID,0,VALID,86.7811,VALID,0,VALID,20.3442,VALID,236,VALID,0,
2009-07-13, 01:05:04,VALID,1008.85,VALID,0,VALID,86.7734,VALID,0,VALID,20.3247,VALID,236,VALID,0,
2009-07-13, 01:06:04,VALID,1008.81,VALID,0,VALID,86.7963,VALID,0,VALID,20.3442,VALID,236,VALID,0,
2009-07-13, 01:07:04,VALID,1008.8,VALID,0,VALID,86.804,VALID,0,VALID,20.3652,VALID,236,VALID,0,
2009-07-13, 01:08:04,VALID,1008.79,VALID,0,VALID,86.8116,VALID,0,VALID,20.3427,VALID,236,VALID,0,
2009-07-13, 01:09:04,VALID,1008.79,VALID,0,VALID,86.8345,VALID,0,VALID,20.3831,VALID,236,VALID,0,
2009-07-13, 01:10:04,VALID,1008.75,VALID,0,VALID,86.865,VALID,0,VALID,20.3816,VALID,236,VALID,0,
2009-07-13, 01:11:04,VALID,1008.76,VALID,0,VALID,86.8878,VALID,0,VALID,20.4026,VALID,236,VALID,0,
2009-07-13, 01:12:04,VALID,1008.74,VALID,0,VALID,86.8802,VALID,0,VALID,20.4026,VALID,236,VALID,0,
2009-07-13, 01:13:04,VALID,1008.72,VALID,0,VALID,86.8955,VALID,0,VALID,20.4415,VALID,236,VALID,0,
2009-07-13, 01:14:04,VALID,1008.72,VALID,0,VALID,86.9031,VALID,0,VALID,20.4594,VALID,236,VALID,0,
2009-07-13, 01:15:04,VALID,1008.69,VALID,0,VALID,86.9031,VALID,0,VALID,20.461,VALID,236,VALID,0,
2009-07-13, 01:16:04,VALID,1008.66,VALID,0,VALID,86.8878,VALID,0,VALID,20.4594,VALID,236,VALID,0,
2009-07-13, 01:17:04,VALID,1008.64,VALID,0,VALID,86.8955,VALID,0,VALID,20.461,VALID,236,VALID,0,
2009-07-13, 01:18:04,VALID,1008.62,VALID,0,VALID,86.8726,VALID,0,VALID,20.4594,VALID,236,VALID,0,
2009-07-13, 01:19:04,VALID,1008.61,VALID,0,VALID,86.8726,VALID,0,VALID,20.461,VALID,236,VALID,0,
2009-07-13, 01:20:04,VALID,1008.59,VALID,0,VALID,86.865,VALID,0,VALID,20.4415,VALID,236,VALID,0,
2009-07-13, 01:21:04,VALID,1008.58,VALID,0,VALID,86.8573,VALID,0.105969,VALID,20.4205,VALID,236,VALID,0,
2009-07-13, 01:22:04,VALID,1008.57,VALID,0,VALID,86.8573,VALID,0,VALID,20.4221,VALID,236,VALID,0,
2009-07-13, 01:23:04,VALID,1008.57,VALID,0,VALID,86.8345,VALID,0,VALID,20.4026,VALID,236,VALID,0,
2009-07-13, 01:24:04,VALID,1008.57,VALID,0,VALID,86.8116,VALID,0.105969,VALID,20.3621,VALID,236,VALID,0,
2009-07-13, 01:25:04,VALID,1008.58,VALID,0,VALID,86.8116,VALID,0,VALID,20.3232,VALID,236,VALID,0,
2009-07-13, 01:26:04,VALID,1008.54,VALID,0,VALID,86.804,VALID,0.105969,VALID,20.3037,VALID,236,VALID,0,
2009-07-13, 01:27:04,VALID,1008.53,VALID,0,VALID,86.7658,VALID,0,VALID,20.3053,VALID,236,VALID,0,
2009-07-13, 01:28:04,VALID,1008.52,VALID,0,VALID,86.7658,VALID,0,VALID,20.2858,VALID,236,VALID,0,
2009-07-13, 01:29:04,VALID,1008.47,VALID,0,VALID,86.7658,VALID,0,VALID,20.2469,VALID,236,VALID,0,
2009-07-13, 01:30:04,VALID,1008.48,VALID,0,VALID,86.7811,VALID,0,VALID,20.2453,VALID,236,VALID,0,
2009-07-13, 01:31:04,VALID,1008.44,VALID,0,VALID,86.7811,VALID,0.105969,VALID,20.2843,VALID,236,VALID,0,
2009-07-13, 01:32:04,VALID,1008.48,VALID,0,VALID,86.8268,VALID,0,VALID,20.3247,VALID,236,VALID,0,
2009-07-13, 01:33:04,VALID,1008.49,VALID,0,VALID,86.8345,VALID,0,VALID,20.3232,VALID,236,VALID,0,
2009-07-13, 01:34:04,VALID,1008.48,VALID,0,VALID,86.8497,VALID,0,VALID,20.3442,VALID,236,VALID,0,
2009-07-13, 01:35:04,VALID,1008.49,VALID,0,VALID,86.8726,VALID,0,VALID,20.3232,VALID,236,VALID,0,
2009-07-13, 01:36:04,VALID,1008.46,VALID,0,VALID,86.865,VALID,0,VALID,20.3427,VALID,236,VALID,0,
2009-07-13, 01:37:04,VALID,1008.44,VALID,0,VALID,86.8955,VALID,0,VALID,20.3232,VALID,236,VALID,0,
2009-07-13, 01:38:04,VALID,1008.41,VALID,0,VALID,86.8955,VALID,0.105969,VALID,20.3247,VALID,236,VALID,0,
2009-07-13, 01:39:04,VALID,1008.41,VALID,0,VALID,86.8878,VALID,0,VALID,20.2843,VALID,236,VALID,0,
2009-07-13, 01:40:04,VALID,1008.41,VALID,0,VALID,86.8802,VALID,0,VALID,20.2259,VALID,236,VALID,0,
2009-07-13, 01:41:04,VALID,1008.45,VALID,0,VALID,86.8802,VALID,0,VALID,20.2274,VALID,236,VALID,0,
2009-07-13, 01:42:04,VALID,1008.43,VALID,0,VALID,86.8726,VALID,0,VALID,20.1869,VALID,236,VALID,0,
2009-07-13, 01:43:04,VALID,1008.45,VALID,0,VALID,86.8726,VALID,0,VALID,20.1675,VALID,236,VALID,0,
2009-07-13, 01:44:04,VALID,1008.43,VALID,0,VALID,86.8726,VALID,0,VALID,20.1495,VALID,236,VALID,0,
2009-07-13, 01:45:04,VALID,1008.41,VALID,0,VALID,86.8573,VALID,0,VALID,20.1301,VALID,236,VALID,0,
2009-07-13, 01:46:04,VALID,1008.43,VALID,0,VALID,86.865,VALID,0.105969,VALID,20.1301,VALID,236,VALID,0,
2009-07-13, 01:47:04,VALID,1008.44,VALID,0,VALID,86.865,VALID,0,VALID,20.1495,VALID,236,VALID,0,
2009-07-13, 01:48:04,VALID,1008.44,VALID,0,VALID,86.8878,VALID,0,VALID,20.1495,VALID,236,VALID,0,
2009-07-13, 01:49:04,VALID,1008.45,VALID,0,VALID,86.8955,VALID,0,VALID,20.169,VALID,236,VALID,0,
2009-07-13, 01:50:04,VALID,1008.44,VALID,0,VALID,86.9488,VALID,0,VALID,20.169,VALID,236,VALID,0,
2009-07-13, 01:51:04,VALID,1008.44,VALID,0,VALID,86.9412,VALID,0,VALID,20.1885,VALID,236,VALID,0,
2009-07-13, 01:52:04,VALID,1008.43,VALID,0,VALID,86.9641,VALID,0.105969,VALID,20.2079,VALID,236,VALID,0,
2009-07-13, 01:53:04,VALID,1008.42,VALID,0,VALID,86.9946,VALID,0,VALID,20.2079,VALID,236,VALID,0,
2009-07-13, 01:54:04,VALID,1008.42,VALID,0,VALID,87.0022,VALID,0,VALID,20.1869,VALID,236,VALID,0,
2009-07-13, 01:55:04,VALID,1008.41,VALID,0,VALID,87.0022,VALID,0,VALID,20.2079,VALID,236,VALID,0,
2009-07-13, 01:56:04,VALID,1008.41,VALID,0,VALID,87.0251,VALID,0,VALID,20.2079,VALID,236,VALID,0,
2009-07-13, 01:57:04,VALID,1008.42,VALID,0,VALID,87.0327,VALID,0,VALID,20.1885,VALID,236,VALID,0,
2009-07-13, 01:58:04,VALID,1008.4,VALID,0,VALID,87.0175,VALID,0.105969,VALID,20.1301,VALID,236,VALID,0,
2009-07-13, 01:59:04,VALID,1008.42,VALID,0,VALID,87.0327,VALID,0,VALID,20.0702,VALID,236,VALID,0,
2009-07-13, 02:00:04,VALID,1008.43,VALID,0,VALID,87.0327,VALID,0,VALID,20.0507,VALID,236,VALID,0,
2009-07-13, 02:01:04,VALID,1008.4,VALID,0,VALID,87.0404,VALID,0,VALID,19.9923,VALID,236,VALID,0,
2009-07-13, 02:02:04,VALID,1008.4,VALID,0,VALID,87.0327,VALID,0,VALID,19.9744,VALID,236,VALID,0,
2009-07-13, 02:03:04,VALID,1008.39,VALID,0,VALID,87.0327,VALID,0,VALID,19.9549,VALID,236,VALID,0,
2009-07-13, 02:04:04,VALID,1008.39,VALID,0,VALID,87.0556,VALID,0,VALID,19.9354,VALID,236,VALID,0,
2009-07-13, 02:05:04,VALID,1008.38,VALID,0,VALID,87.0327,VALID,0,VALID,19.9354,VALID,236,VALID,0,
2009-07-13, 02:06:04,VALID,1008.37,VALID,0,VALID,87.0251,VALID,0,VALID,19.8965,VALID,236,VALID,0,
2009-07-13, 02:07:04,VALID,1008.39,VALID,0,VALID,87.048,VALID,0,VALID,19.916,VALID,236,VALID,0,
2009-07-13, 02:08:04,VALID,1008.4,VALID,0,VALID,87.0404,VALID,0,VALID,19.9145,VALID,236,VALID,0,
2009-07-13, 02:09:04,VALID,1008.38,VALID,0,VALID,87.0404,VALID,0,VALID,19.895,VALID,236,VALID,0,
2009-07-13, 02:10:04,VALID,1008.39,VALID,0,VALID,87.0556,VALID,0,VALID,19.877,VALID,236,VALID,0,
2009-07-13, 02:11:04,VALID,1008.39,VALID,0,VALID,87.0709,VALID,0,VALID,19.8561,VALID,236,VALID,0,
2009-07-13, 02:12:04,VALID,1008.37,VALID,0,VALID,87.0632,VALID,0,VALID,19.8576,VALID,236,VALID,0,
2009-07-13, 02:13:04,VALID,1008.35,VALID,0,VALID,87.0556,VALID,0.105969,VALID,19.8561,VALID,236,VALID,0,
2009-07-13, 02:14:04,VALID,1008.34,VALID,0,VALID,87.0632,VALID,0,VALID,19.8576,VALID,236,VALID,0,
2009-07-13, 02:15:04,VALID,1008.32,VALID,0,VALID,87.0556,VALID,0,VALID,19.8187,VALID,236,VALID,0,
2009-07-13, 02:16:04,VALID,1008.33,VALID,0,VALID,87.0556,VALID,0,VALID,19.7992,VALID,236,VALID,0,
2009-07-13, 02:17:04,VALID,1008.31,VALID,0,VALID,87.0556,VALID,0,VALID,19.7797,VALID,236,VALID,0,
2009-07-13, 02:18:04,VALID,1008.3,VALID,0,VALID,87.0404,VALID,0,VALID,19.7797,VALID,236,VALID,0,
2009-07-13, 02:19:04,VALID,1008.28,VALID,0,VALID,87.0404,VALID,0,VALID,19.7588,VALID,236,VALID,0,
2009-07-13, 02:20:04,VALID,1008.29,VALID,0,VALID,87.0709,VALID,0,VALID,19.7782,VALID,236,VALID,0,
2009-07-13, 02:21:04,VALID,1008.29,VALID,0,VALID,87.0785,VALID,0,VALID,19.7782,VALID,236,VALID,0,
2009-07-13, 02:22:04,VALID,1008.28,VALID,0,VALID,87.0937,VALID,0,VALID,19.7992,VALID,236,VALID,0,
2009-07-13, 02:23:04,VALID,1008.29,VALID,0,VALID,87.109,VALID,0,VALID,19.7588,VALID,236,VALID,0,
2009-07-13, 02:24:04,VALID,1008.29,VALID,0,VALID,87.109,VALID,0,VALID,19.7603,VALID,236,VALID,0,
2009-07-13, 02:25:04,VALID,1008.27,VALID,0,VALID,87.1014,VALID,0,VALID,19.7603,VALID,236,VALID,0,
2009-07-13, 02:26:04,VALID,1008.27,VALID,0,VALID,87.1242,VALID,0.105969,VALID,19.7588,VALID,236,VALID,0,
2009-07-13, 02:27:04,VALID,1008.24,VALID,0,VALID,87.109,VALID,0.105969,VALID,19.7782,VALID,236,VALID,0,
2009-07-13, 02:28:04,VALID,1008.24,VALID,0,VALID,87.1395,VALID,0,VALID,19.7797,VALID,236,VALID,0,
2009-07-13, 02:29:04,VALID,1008.24,VALID,0,VALID,87.1319,VALID,0,VALID,19.7603,VALID,236,VALID,0,
2009-07-13, 02:30:04,VALID,1008.19,VALID,0,VALID,87.1395,VALID,0,VALID,19.7797,VALID,236,VALID,0,
2009-07-13, 02:31:04,VALID,1008.17,VALID,0,VALID,87.1319,VALID,0,VALID,19.7992,VALID,236,VALID,0,
2009-07-13, 02:32:04,VALID,1008.14,VALID,0,VALID,87.1471,VALID,0,VALID,19.7992,VALID,236,VALID,0,
2009-07-13, 02:33:04,VALID,1008.11,VALID,0,VALID,87.1471,VALID,0,VALID,19.7992,VALID,236,VALID,0,
2009-07-13, 02:34:04,VALID,1008.1,VALID,0,VALID,87.1547,VALID,0,VALID,19.8381,VALID,236,VALID,0,
2009-07-13, 02:35:04,VALID,1008.1,VALID,0,VALID,87.1852,VALID,0,VALID,19.7977,VALID,236,VALID,0,
2009-07-13, 02:36:04,VALID,1008.1,VALID,0,VALID,87.1852,VALID,0,VALID,19.7992,VALID,236,VALID,0,
2009-07-13, 02:37:04,VALID,1008.1,VALID,0,VALID,87.2005,VALID,0,VALID,19.7408,VALID,236,VALID,0,
2009-07-13, 02:38:04,VALID,1008.11,VALID,0,VALID,87.2005,VALID,0,VALID,19.7228,VALID,236,VALID,0,
2009-07-13, 02:39:04,VALID,1008.09,VALID,0,VALID,87.2081,VALID,0,VALID,19.6615,VALID,236,VALID,0,
2009-07-13, 02:40:04,VALID,1008.1,VALID,0,VALID,87.1929,VALID,0,VALID,19.6824,VALID,236,VALID,0,
2009-07-13, 02:41:04,VALID,1008.11,VALID,0,VALID,87.2081,VALID,0,VALID,19.6824,VALID,236,VALID,0,
2009-07-13, 02:42:04,VALID,1008.11,VALID,0,VALID,87.2234,VALID,0,VALID,19.6824,VALID,236,VALID,0,
2009-07-13, 02:43:04,VALID,1008.11,VALID,0,VALID,87.2234,VALID,0.105969,VALID,19.6824,VALID,236,VALID,0,
2009-07-13, 02:44:04,VALID,1008.1,VALID,0,VALID,87.2234,VALID,0,VALID,19.7019,VALID,236,VALID,0,
2009-07-13, 02:45:04,VALID,1008.1,VALID,0,VALID,87.231,VALID,0,VALID,19.7213,VALID,236,VALID,0,
2009-07-13, 02:46:04,VALID,1008.08,VALID,0,VALID,87.2386,VALID,0,VALID,19.7213,VALID,236,VALID,0,
2009-07-13, 02:47:04,VALID,1008.09,VALID,0,VALID,87.2462,VALID,0,VALID,19.7603,VALID,236,VALID,0,
2009-07-13, 02:48:04,VALID,1008.08,VALID,0,VALID,87.2539,VALID,0,VALID,19.7588,VALID,236,VALID,0,
2009-07-13, 02:49:04,VALID,1008.08,VALID,0,VALID,87.2615,VALID,0,VALID,19.7797,VALID,236,VALID,0,
2009-07-13, 02:50:04,VALID,1008.08,VALID,0,VALID,87.2615,VALID,0,VALID,19.7588,VALID,236,VALID,0,
2009-07-13, 02:51:04,VALID,1008.11,VALID,0,VALID,87.2615,VALID,0,VALID,19.7393,VALID,236,VALID,0,
2009-07-13, 02:52:04,VALID,1008.1,VALID,0,VALID,87.2539,VALID,0,VALID,19.7603,VALID,236,VALID,0,
2009-07-13, 02:53:04,VALID,1008.12,VALID,0,VALID,87.2691,VALID,0,VALID,19.7408,VALID,236,VALID,0,
2009-07-13, 02:54:04,VALID,1008.15,VALID,0,VALID,87.2767,VALID,0,VALID,19.7213,VALID,236,VALID,0,
2009-07-13, 02:55:04,VALID,1008.15,VALID,0,VALID,87.2996,VALID,0,VALID,19.7004,VALID,236,VALID,0,
2009-07-13, 02:56:04,VALID,1008.12,VALID,0,VALID,87.2691,VALID,0,VALID,19.7004,VALID,236,VALID,0,
2009-07-13, 02:57:04,VALID,1008.15,VALID,0,VALID,87.292,VALID,0,VALID,19.7213,VALID,236,VALID,0,
2009-07-13, 02:58:04,VALID,1008.14,VALID,0,VALID,87.2767,VALID,0,VALID,19.6809,VALID,236,VALID,0,
2009-07-13, 02:59:04,VALID,1008.14,VALID,0,VALID,87.2996,VALID,0,VALID,19.6809,VALID,236,VALID,0,
2009-07-13, 03:00:04,VALID,1008.13,VALID,0,VALID,87.3073,VALID,0,VALID,19.6615,VALID,236,VALID,0,
2009-07-13, 03:01:04,VALID,1008.1,VALID,0,VALID,87.3073,VALID,0,VALID,19.6435,VALID,236,VALID,0,
2009-07-13, 03:02:04,VALID,1008.09,VALID,0,VALID,87.3149,VALID,0,VALID,19.6046,VALID,236,VALID,0,
2009-07-13, 03:03:04,VALID,1008.09,VALID,0,VALID,87.3149,VALID,0,VALID,19.5851,VALID,236,VALID,0,
2009-07-13, 03:04:04,VALID,1008.09,VALID,0,VALID,87.3225,VALID,0,VALID,19.5657,VALID,236,VALID,0,
2009-07-13, 03:05:04,VALID,1008.09,VALID,0,VALID,87.3073,VALID,0,VALID,19.5657,VALID,236,VALID,0,
2009-07-13, 03:06:04,VALID,1008.1,VALID,0,VALID,87.3225,VALID,0,VALID,19.5657,VALID,236,VALID,0,
2009-07-13, 03:07:04,VALID,1008.1,VALID,0,VALID,87.3073,VALID,0,VALID,19.5252,VALID,236,VALID,0,
2009-07-13, 03:08:04,VALID,1008.09,VALID,0,VALID,87.3149,VALID,0,VALID,19.5462,VALID,236,VALID,0,
2009-07-13, 03:09:04,VALID,1008.1,VALID,0,VALID,87.3301,VALID,0,VALID,19.5851,VALID,236,VALID,0,
2009-07-13, 03:10:04,VALID,1008.13,VALID,0,VALID,87.3073,VALID,0,VALID,19.624,VALID,236,VALID,0,
2009-07-13, 03:11:04,VALID,1008.12,VALID,0,VALID,87.3378,VALID,0,VALID,19.6046,VALID,236,VALID,0,
2009-07-13, 03:12:04,VALID,1008.1,VALID,0,VALID,87.3301,VALID,0,VALID,19.5851,VALID,236,VALID,0,
2009-07-13, 03:13:04,VALID,1008.12,VALID,0,VALID,87.3454,VALID,0,VALID,19.5462,VALID,236,VALID,0,
2009-07-13, 03:14:04,VALID,1008.11,VALID,0,VALID,87.3454,VALID,0,VALID,19.4878,VALID,236,VALID,0,
2009-07-13, 03:15:04,VALID,1008.1,VALID,0,VALID,87.3225,VALID,0,VALID,19.4085,VALID,236,VALID,0,
2009-07-13, 03:16:04,VALID,1008.12,VALID,0,VALID,87.3301,VALID,0,VALID,19.4489,VALID,236,VALID,0,
2009-07-13, 03:17:04,VALID,1008.13,VALID,0,VALID,87.292,VALID,0,VALID,19.4878,VALID,236,VALID,0,
2009-07-13, 03:18:04,VALID,1008.15,VALID,0,VALID,87.2996,VALID,0,VALID,19.5073,VALID,236,VALID,0,
2009-07-13, 03:19:04,VALID,1008.17,VALID,0,VALID,87.2996,VALID,0,VALID,19.4878,VALID,236,VALID,0,
2009-07-13, 03:20:04,VALID,1008.2,VALID,0,VALID,87.3073,VALID,0,VALID,19.4878,VALID,236,VALID,0,
2009-07-13, 03:21:04,VALID,1008.21,VALID,0,VALID,87.3149,VALID,0,VALID,19.4669,VALID,236,VALID,0,
2009-07-13, 03:22:04,VALID,1008.19,VALID,0,VALID,87.2996,VALID,0,VALID,19.4489,VALID,236,VALID,0,
2009-07-13, 03:23:04,VALID,1008.22,VALID,0,VALID,87.2996,VALID,0,VALID,19.4474,VALID,236,VALID,0,
2009-07-13, 03:24:05,VALID,1008.2,VALID,0,VALID,87.3073,VALID,0,VALID,19.4683,VALID,236,VALID,0,
2009-07-13, 03:25:05,VALID,1008.23,VALID,0,VALID,87.2996,VALID,0,VALID,19.4683,VALID,236,VALID,0,
2009-07-13, 03:26:05,VALID,1008.24,VALID,0,VALID,87.292,VALID,0,VALID,19.4878,VALID,236,VALID,0,
2009-07-13, 03:27:05,VALID,1008.22,VALID,0,VALID,87.2996,VALID,0,VALID,19.4489,VALID,236,VALID,0,
2009-07-13, 03:28:05,VALID,1008.24,VALID,0,VALID,87.292,VALID,0,VALID,19.5073,VALID,236,VALID,0,
2009-07-13, 03:29:05,VALID,1008.26,VALID,0,VALID,87.292,VALID,0,VALID,19.5252,VALID,236,VALID,0,
2009-07-13, 03:30:05,VALID,1008.26,VALID,0,VALID,87.292,VALID,0,VALID,19.5851,VALID,236,VALID,0,
2009-07-13, 03:31:05,VALID,1008.27,VALID,0,VALID,87.2996,VALID,0,VALID,19.6046,VALID,236,VALID,0,
2009-07-13, 03:32:05,VALID,1008.28,VALID,0,VALID,87.3149,VALID,0,VALID,19.624,VALID,236,VALID,0,
2009-07-13, 03:33:05,VALID,1008.32,VALID,0,VALID,87.2996,VALID,0,VALID,19.624,VALID,236,VALID,0,
2009-07-13, 03:34:05,VALID,1008.31,VALID,0,VALID,87.3225,VALID,0,VALID,19.6046,VALID,236,VALID,0,
2009-07-13, 03:35:05,VALID,1008.3,VALID,0,VALID,87.3149,VALID,0,VALID,19.5642,VALID,236,VALID,0,
2009-07-13, 03:36:05,VALID,1008.32,VALID,0,VALID,87.3073,VALID,0,VALID,19.6046,VALID,236,VALID,0,
2009-07-13, 03:37:05,VALID,1008.29,VALID,0,VALID,87.3149,VALID,0,VALID,19.6046,VALID,236,VALID,0,
2009-07-13, 03:38:05,VALID,1008.33,VALID,0,VALID,87.2996,VALID,0,VALID,19.6255,VALID,236,VALID,0,
2009-07-13, 03:39:05,VALID,1008.35,VALID,0,VALID,87.3149,VALID,0,VALID,19.6046,VALID,236,VALID,0,
2009-07-13, 03:40:05,VALID,1008.33,VALID,0,VALID,87.3073,VALID,0,VALID,19.6046,VALID,236,VALID,0,
2009-07-13, 03:41:05,VALID,1008.35,VALID,0,VALID,87.3225,VALID,0,VALID,19.5851,VALID,236,VALID,0,
2009-07-13, 03:42:05,VALID,1008.37,VALID,0,VALID,87.3149,VALID,0,VALID,19.5657,VALID,236,VALID,0,
2009-07-13, 03:43:05,VALID,1008.35,VALID,0,VALID,87.292,VALID,0,VALID,19.5462,VALID,236,VALID,0,
2009-07-13, 03:44:05,VALID,1008.39,VALID,0,VALID,87.3149,VALID,0,VALID,19.5267,VALID,236,VALID,0,
2009-07-13, 03:45:05,VALID,1008.38,VALID,0,VALID,87.3301,VALID,0,VALID,19.4878,VALID,236,VALID,0,
2009-07-13, 03:46:05,VALID,1008.38,VALID,0,VALID,87.3301,VALID,0,VALID,19.4294,VALID,236,VALID,0,
2009-07-13, 03:47:05,VALID,1008.41,VALID,0,VALID,87.3225,VALID,0,VALID,19.41,VALID,236,VALID,0,
2009-07-13, 03:48:05,VALID,1008.41,VALID,0,VALID,87.3149,VALID,0,VALID,19.389,VALID,236,VALID,0,
2009-07-13, 03:49:05,VALID,1008.41,VALID,0,VALID,87.3149,VALID,0,VALID,19.3905,VALID,236,VALID,0,
2009-07-13, 03:50:05,VALID,1008.43,VALID,0,VALID,87.3301,VALID,0,VALID,19.3905,VALID,236,VALID,0,
2009-07-13, 03:51:05,VALID,1008.4,VALID,0,VALID,87.2996,VALID,0,VALID,19.41,VALID,236,VALID,0,
2009-07-13, 03:52:05,VALID,1008.43,VALID,0,VALID,87.2996,VALID,0,VALID,19.4309,VALID,236,VALID,0,
2009-07-13, 03:53:05,VALID,1008.44,VALID,0,VALID,87.2996,VALID,0,VALID,19.3696,VALID,236,VALID,0,
2009-07-13, 03:54:05,VALID,1008.45,VALID,0,VALID,87.3149,VALID,0,VALID,19.3905,VALID,236,VALID,0,
2009-07-13, 03:55:05,VALID,1008.46,VALID,0,VALID,87.3149,VALID,0,VALID,19.3905,VALID,236,VALID,0,
2009-07-13, 03:56:05,VALID,1008.45,VALID,0,VALID,87.3149,VALID,0,VALID,19.392,VALID,236,VALID,0,
2009-07-13, 03:57:05,VALID,1008.43,VALID,0,VALID,87.3225,VALID,0,VALID,19.371,VALID,236,VALID,0,
2009-07-13, 03:58:05,VALID,1008.45,VALID,0,VALID,87.3149,VALID,0,VALID,19.3516,VALID,236,VALID,0,
2009-07-13, 03:59:05,VALID,1008.45,VALID,0,VALID,87.3149,VALID,0,VALID,19.4114,VALID,236,VALID,0,